Location: Melbourne
(37.8120°S, 144.9677°E)
Time: 20:51:48
(UTC+11:00)

ISS - Visible Passes

Search period start: 08 December 2016 00:00
Search period end: 18 December 2016 00:00
Orbit: 401 x 410 km, 51.6° (Epoch: 08 December)

Date Brightness Start Highest point End Pass type
(mag) Time Alt. Az. Time Alt. Az. Time Alt. Az.
08 Dec -1.7 04:00:33 22° NNE 04:01:09 23° NE 04:03:53 10° ESE visible
09 Dec -0.4 03:10:38 10° ENE 03:10:38 10° ENE 03:10:47 10° ENE visible
09 Dec -3.0 04:43:18 19° WNW 04:45:31 62° SW 04:48:51 10° SE visible
10 Dec -3.3 03:53:18 60° N 03:53:36 65° NE 03:56:55 10° SE visible
11 Dec -1.1 03:03:14 21° E 03:03:14 21° E 03:04:44 10° ESE visible
11 Dec -1.7 04:35:54 13° W 04:38:15 27° SSW 04:41:10 10° SSE visible
12 Dec -2.7 03:45:46 44° WSW 03:46:10 47° SW 03:49:25 10° SE visible
12 Dec -0.5 05:22:02 10° SW 05:23:20 12° SSW 05:24:37 10° S visible
13 Dec -1.6 02:55:34 32° SE 02:55:34 32° SE 02:57:31 10° SE visible
13 Dec -0.7 04:28:54 10° WSW 04:31:03 16° SSW 04:33:13 10° SSE visible
14 Dec -0.1 02:05:18 11° ESE 02:05:18 11° ESE 02:05:24 10° ESE visible
14 Dec -1.4 03:37:57 21° SW 03:38:51 23° SSW 03:41:36 10° SSE visible
15 Dec -1.4 02:47:38 30° S 02:47:38 30° S 02:49:51 10° SE visible
15 Dec -0.2 04:23:10 10° SSW 04:23:57 11° SSW 04:24:45 10° S visible
16 Dec -0.4 01:57:15 15° SE 01:57:15 15° SE 01:57:58 10° SE visible
16 Dec -0.5 03:29:53 10° SW 03:31:37 14° SSW 03:33:29 10° SSE visible
17 Dec -0.8 02:39:26 20° SSW 02:39:26 20° SSW 02:41:54 10° SSE visible
